Вернуться в каталог

COSMOS 2491 DEB

АктивенPO
NORAD 44987·DEBRIS·🇷🇺 Russia

Запущен Dec 25, 2013 с Plesetsk Cosmodrome

Loading…

Ближайшие Пролёты (ближайшие 24 часа)

TLE

СвежийSource: Space-Track

Эпоха: Sep 14, 2026, 02:32 UTC

1 44987U 13076H   26257.10597610  .00000919  00000-0  41669-2 0  9997
2 44987  82.4060  34.8152 0183430 251.8213 106.2838 12.72069996309593

Отслеживайте COSMOS 2491 DEB в реальном времени с AllMySat

Download on the App Store